Location: ??
(35.5425°N, 139.6784°E)
Time: 21:42:53
(UTC+00:00)

Daily predictions for brighter satellites

Satellite Brightness Start Highest point End
(mag) Time Altitude Azimuth Time Altitude Azimuth Time Altitude Azimuth
USA 234 3.7 18:13:21 10° NE 18:19:46 56° SE 18:21:02 49° S
ALOS 4.3 18:18:17 10° NNE 18:19:58 22° NNE 18:19:58 22° NNE
COSMOS 2455 4.3 18:41:44 24° NNW 18:41:44 24° NNW 18:44:33 10° N
SL-16 R/B 2.5 18:36:56 37° N 18:39:11 66° ENE 18:44:48 10° SSE
Lacrosse 5 3.4 18:41:17 25° N 18:43:08 32° NE 18:47:40 10° ESE
USA 229 DEB 3.8 18:42:09 50° NW 18:44:16 73° WSW 18:52:05 10° SSE
USA 229 3.8 18:42:08 49° NW 18:44:23 73° WSW 18:52:13 10° SSE
Cosmos 2181 Rocket 3.8 18:45:03 61° SW 18:46:06 76° W 18:52:21 10° N
SME Rocket 3.7 18:41:24 10° SSE 18:48:20 88° ENE 18:50:42 33° NNW
Cosmos 2322 Rocket 2.6 18:47:10 14° NNW 18:52:03 63° ENE 18:57:40 10° SSE
SL-4 R/B 4.3 18:52:58 16° N 18:54:02 17° NNE 18:56:51 10° ENE
USA 307 3.1 18:55:22 64° ESE 18:55:22 64° ESE 18:59:21 10° NE
Cosmos 1484 Rocket 4.0 18:51:57 10° NNE 18:54:15 35° NNE 18:54:15 35° NNE
USA 306 3.0 18:57:22 73° E 18:57:22 73° E 19:01:21 10° NE
Cosmos 2360 Rocket 3.3 18:56:55 10° N 19:02:21 44° ENE 19:07:44 10° SE
Cosmos 2333 Rocket 4.4 19:00:54 10° N 19:05:32 24° ENE 19:10:08 10° ESE
Cosmos 1975 Rocket 4.0 19:01:47 10° SSE 19:06:02 49° E 19:10:20 10° NNE
Cosmos 158 Rocket 3.8 19:02:47 23° SSW 19:06:04 88° ESE 19:11:06 10° NNE
OAO 2 Rocket 3.2 19:05:53 64° W 19:06:38 82° S 19:11:37 10° E
NOSS 3-1 (A) 4.3 19:03:10 33° WNW 19:06:43 52° WSW 19:15:22 10° S
SL-8 Rocket 3.9 19:02:18 10° NNW 19:08:21 57° W 19:14:21 10° S
USA 276 3.6 19:11:38 30° NNE 19:11:38 30° NNE 19:13:26 10° NE
Cosmos 332 Rocket 4.4 19:05:58 10° N 19:10:41 54° ENE 19:15:22 10° SSE
CZ-4C R/B 4.0 19:04:54 10° NNW 19:12:07 47° NE 19:20:17 10° SE
Cosmos 2218 Rocket 4.0 19:11:12 10° NNW 19:17:27 59° W 19:23:39 10° S
USA 308 2.7 19:17:08 59° WSW 19:17:51 77° NW 19:22:06 10° NE
Cosmos 1538 Rocket 4.0 19:16:09 28° SW 19:18:53 61° WNW 19:24:12 10° N
FENGYUN 3A 4.4 19:15:11 10° N 19:19:22 32° NW 19:19:22 32° NW
SEDSat Delta rocket 3.6 19:21:58 35° SW 19:23:33 51° S 19:27:50 10° ESE
BREEZE-M R/B 4.5 19:28:25 10° S 19:30:17 17° SE 19:32:01 10° E
Okean 1 Rocket 3.4 19:28:40 21° NW 19:31:10 40° W 19:35:20 10° SSW
GOES 2 Rocket 4.1 19:30:03 24° SW 19:31:33 31° S 19:35:21 10° ESE
BREEZE-M DEB (TANK) 4.1 19:33:02 12° N 19:33:09 12° N 19:34:12 10° NNE
Atlas Centaur 2 3.6 19:28:36 12° SW 19:33:50 31° SSE 19:38:36 10° ESE
Cosmos 1346 Rocket 3.3 19:34:39 35° WNW 19:34:39 35° WNW 19:38:16 10° N
SL-27 R/B 4.2 19:36:58 17° NNW 19:36:58 17° NNW 19:38:04 10° N
ASTRO E2 4.3 19:33:12 17° SSW 19:35:20 27° SSE 19:38:43 10° ESE
SJ-6F 4.4 19:31:13 10° N 19:35:20 57° WNW 19:39:26 10° SSW
PSLV R/B 4.0 19:31:37 10° N 19:35:38 37° WNW 19:37:33 24° WSW
Cosmos 371 Rocket 3.7 19:34:29 19° NW 19:37:28 40° WSW 19:41:59 10° S
ERBS 3.3 19:38:17 10° SSW 19:41:23 44° SE 19:44:31 10° NE
Cosmos 1953 2.2 19:38:50 10° NNW 19:42:50 67° W 19:46:47 10° S
ATLAS 2A CENTAUR R/B 3.8 19:42:37 10° S 19:43:23 10° S 19:44:17 10° SSE
Cosmos 1908 3.2 19:40:17 10° NNW 19:43:59 51° W 19:47:39 10° S
COSMOS 2487 2.1 19:40:55 10° SSW 19:44:15 81° WNW 19:47:35 10° NNE
SAR-Lupe-3 4.4 19:41:09 10° N 19:44:42 67° WNW 19:48:13 10° SSW
ISS -3.3 19:44:31 33° W 19:45:26 42° NW 19:48:40 10° NE
Cosmos 1626 2.8 19:47:06 15° SW 19:49:34 30° W 19:52:52 10° NNW
SL-24 R/B - RUBIN 2 3.6 19:47:01 10° NNW 19:51:31 82° ENE 19:55:48 10° SSE
Cosmos 2237 4.4 19:47:50 10° NW 19:53:19 47° WSW 19:58:44 10° S
Meteor 1-31 Rocket 2.6 19:53:37 10° N 19:57:25 81° WNW 20:01:11 10° SSW
Cosmos 923 Rocket 4.0 19:52:56 10° SSW 19:58:04 63° WNW 20:03:14 10° N
YAOGAN 6 2.5 19:54:44 10° N 19:58:15 61° WNW 20:01:46 10° SSW
ALOS 4.3 19:57:55 10° NW 19:58:27 11° NW 19:58:27 11° NW
Cosmos 1680 Rocket 3.4 19:55:10 10° SSW 20:00:23 82° WNW 20:05:40 10° NNE
Landsat 5 3.5 19:57:34 10° SSE 20:01:26 77° ENE 20:05:27 10° N
USA 234 3.8 19:56:35 10° NNE 20:02:33 40° NW 20:08:25 11° W
SL-14 R/B 3.6 20:00:17 10° SSW 20:04:02 42° W 20:07:47 10° N
BREEZE M DEB (TANK) 3.1 20:00:49 14° WNW 20:04:15 37° SW 20:06:38 10° SSE
Cosmos 1441 Rocket 3.3 20:00:38 10° SSW 20:04:16 48° W 20:07:52 10° N
H-2A R/B 2.8 20:01:53 10° N 20:05:32 50° WNW 20:09:08 10° SSW
USA 305 4.0 20:03:40 16° W 20:06:06 27° NW 20:09:41 10° NNE
Envisat 3.0 20:01:12 10° N 20:06:14 66° WNW 20:11:15 10° SSW
OAO 3 Copernicus 4.3 20:04:21 15° W 20:08:36 86° S 20:13:39 10° E
COSMOS 2428 3.7 20:04:49 10° N 20:10:22 51° ENE 20:15:54 10° SE
GEOS 3 Rocket 3.6 20:09:28 10° NNE 20:14:32 63° NW 20:19:33 10° SW
Cosmos 1025 Rocket 3.4 20:11:18 10° SSW 20:15:22 40° W 20:19:25 10° N
Cosmos 1300 2.6 20:11:44 10° N 20:15:31 74° W 20:19:17 10° S
Cosmos 2297 Rocket 4.0 20:11:02 10° S 20:16:07 36° ESE 20:21:14 10° NE
Cosmos 2333 4.2 20:13:02 10° NNW 20:18:48 72° WSW 20:24:32 10° SSE
CZ-2C R/B 2.7 20:15:04 10° S 20:20:32 79° WSW 20:26:08 10° NNW
CZ-4C R/B 3.0 20:18:09 10° S 20:21:43 75° WSW 20:25:18 10° NNW
SL-16 R/B 3.8 20:19:49 10° WNW 20:22:36 14° W 20:25:22 10° SW
Lacrosse 5 2.5 20:21:27 10° WNW 20:26:06 37° WSW 20:30:43 10° S
COSMO-SKYMED 1 2.8 20:22:01 10° S 20:26:12 49° W 20:30:26 10° NNW
Cosmos 1536 Rocket 3.5 20:21:58 10° SSW 20:26:22 74° W 20:30:45 10° N
Cosmos 2112 Rocket 4.2 20:23:29 10° SW 20:28:32 51° WNW 20:33:40 10° N
